Terminal Aerodrome Forecast
Issued by NWS St Louis, MO

Home | Current Version | Previous Version | Text Only | Print | Product List | Glossary On
Versions: 1 2 3 4 5 6 7 8 9 10 11 12 13 14 15 16 17 18 19 20 21
000
FTUS43 KLSX 080400 AAA
TAFCOU
TAF AMD
KCOU 080405Z 0804/0824 19012KT P6SM VCTS BKN050CB
     FM080445 33030G45KT 1/2SM +TSRA OVC015CB
     FM080530 12012G22KT 3SM -TSRA BR OVC080CB
     FM080700 VRB04KT 5SM -TSRA OVC060CB
     FM081000 28006KT P6SM SCT030 OVC050
     FM081400 33011KT P6SM SCT020=

USA.gov is the U.S. government's official web portal to all federal, state and local government web resources and services.